Retour au catalogue

COSMOS 1619

ActifMilitairePO
NORAD 15471·PAYLOAD·🇷🇺 Russia

Lancé Jan 15, 1985 depuis Plesetsk Cosmodrome

Loading…

Prochains Passages (prochaines 24 heures)

TLE

FraisSource: Space-Track

Époque: Sep 14, 2026, 05:33 UTC

1 15471U 85003C   26257.23139569  .00000033  00000-0  12029-3 0  9997
2 15471  82.6127 345.5367 0019262 193.3226 194.8612 12.66281704925324

Suivez COSMOS 1619 en temps réel avec AllMySat

Download on the App Store